EN

Hourly Weather Abramovschina 3

Today, 28 November, Saturday

Time Temperature Precipitation Wind Pressure Humidity
00:00 -2°C° 0 mm 2 mps 744 mmHg 90%
01:00 -2°C° 0 mm 2 mps 744 mmHg 91%
02:00 -2°C° 0 mm 2 mps 745 mmHg 92%
03:00 -2°C° 0 mm 2 mps 745 mmHg 92%
04:00 -2°C° 0 mm 2 mps 745 mmHg 92%
05:00 -2°C° 0 mm 2 mps 745 mmHg 92%
06:00 -2°C° 0.1 mm 2 mps 746 mmHg 92%
07:00 -2°C° 0.1 mm 2 mps 746 mmHg 93%
08:00 -2°C° 0 mm 2 mps 746 mmHg 94%
09:00 -2°C° 0.2 mm 2 mps 746 mmHg 93%
10:00 -1°C° 0.2 mm 2 mps 747 mmHg 93%
11:00 -1°C° 0.2 mm 2 mps 747 mmHg 93%
12:00 -1°C° 0.4 mm 2 mps 747 mmHg 94%
13:00 -1°C° 0.4 mm 2 mps 747 mmHg 95%
14:00 -1°C° 0 mm 2 mps 747 mmHg 97%
15:00 -1°C° 0.3 mm 2 mps 747 mmHg 97%
16:00 -1°C° 0.3 mm 3 mps 747 mmHg 96%
17:00 -1°C° 0.3 mm 3 mps 747 mmHg 96%
18:00 -1°C° 0.1 mm 3 mps 747 mmHg 93%
19:00 -2°C° 0.1 mm 3 mps 748 mmHg 91%
20:00 -4°C° 0.1 mm 3 mps 748 mmHg 89%
21:00 -2°C° 0 mm 3 mps 748 mmHg 91%
22:00 -2°C° 0 mm 3 mps 749 mmHg 93%
23:00 -2°C° 0 mm 3 mps 749 mmHg 95%

Tomorrow, 29 November, Sunday

Time Temperature Precipitation Wind Pressure Humidity
00:00 -2°C° 0.1 mm 3 mps 749 mmHg 95%
01:00 -1°C° 0.1 mm 3 mps 749 mmHg 95%
02:00 -1°C° 0.1 mm 3 mps 749 mmHg 94%
03:00 -1°C° 0.1 mm 3 mps 749 mmHg 94%
04:00 -1°C° 0.1 mm 3 mps 749 mmHg 95%
05:00 -1°C° 0.1 mm 3 mps 749 mmHg 95%
06:00 -1°C° 0.1 mm 3 mps 749 mmHg 94%
07:00 -1°C° 0.1 mm 3 mps 749 mmHg 93%
08:00 -3°C° 0.1 mm 4 mps 749 mmHg 92%
09:00 -3°C° 0.1 mm 4 mps 749 mmHg 92%
10:00 -2°C° 0.1 mm 4 mps 748 mmHg 92%
11:00 -2°C° 0.1 mm 4 mps 748 mmHg 92%
12:00 -2°C° 0.3 mm 4 mps 748 mmHg 93%
13:00 -1°C° 0.3 mm 3 mps 748 mmHg 94%
14:00 -2°C° 0.3 mm 3 mps 748 mmHg 94%
15:00 -2°C° 0.4 mm 3 mps 748 mmHg 95%
16:00 -2°C° 0.4 mm 3 mps 748 mmHg 96%
17:00 -2°C° 0.4 mm 2 mps 747 mmHg 97%
18:00 -2°C° 0.2 mm 2 mps 748 mmHg 97%
19:00 -2°C° 0.2 mm 2 mps 748 mmHg 97%
20:00 0°C° 0.2 mm 1 mps 748 mmHg 98%
21:00 -1°C° 0.1 mm 1 mps 748 mmHg 98%
22:00 -1°C° 0.1 mm 1 mps 748 mmHg 97%
23:00 -2°C° 0.1 mm 0 mps 748 mmHg 97%

Day after tomorrow, 30 November, Monday

Time Temperature Precipitation Wind Pressure Humidity
00:00 -1°C° 0 mm 1 mps 748 mmHg 97%
01:00 -1°C° 0 mm 1 mps 748 mmHg 97%
02:00 -1°C° 0 mm 1 mps 748 mmHg 97%
03:00 -1°C° 0.1 mm 1 mps 748 mmHg 97%
04:00 -1°C° 0.1 mm 1 mps 748 mmHg 97%
05:00 -1°C° 0.1 mm 1 mps 748 mmHg 97%
06:00 -1°C° 0 mm 1 mps 748 mmHg 97%
07:00 -1°C° 0 mm 1 mps 749 mmHg 97%
08:00 -2°C° 0 mm 1 mps 749 mmHg 97%
09:00 -1°C° 0 mm 1 mps 749 mmHg 96%
10:00 -3°C° 0 mm 2 mps 749 mmHg 94%
11:00 -2°C° 0 mm 2 mps 750 mmHg 93%
12:00 -2°C° 0 mm 2 mps 750 mmHg 92%
13:00 -2°C° 0 mm 2 mps 750 mmHg 90%
14:00 -2°C° 0 mm 2 mps 750 mmHg 89%
15:00 -2°C° 0 mm 2 mps 750 mmHg 91%
16:00 -3°C° 0 mm 2 mps 750 mmHg 93%
17:00 -3°C° 0 mm 2 mps 750 mmHg 96%
18:00 -3°C° 0 mm 2 mps 750 mmHg 96%
19:00 -4°C° 0 mm 2 mps 750 mmHg 96%
20:00 -4°C° 0 mm 2 mps 751 mmHg 96%
21:00 -5°C° 0 mm 3 mps 751 mmHg 95%
22:00 -4°C° 0 mm 3 mps 751 mmHg 94%
23:00 -4°C° 0 mm 3 mps 751 mmHg 93%

1 December, Tuesday

Time Temperature Precipitation Wind Pressure Humidity
00:00 -4°C° 0 mm 3 mps 751 mmHg 92%
01:00 -4°C° 0 mm 3 mps 751 mmHg 91%
02:00 -4°C° 0 mm 3 mps 751 mmHg 90%
03:00 -5°C° 0 mm 3 mps 751 mmHg 92%
04:00 -5°C° 0 mm 3 mps 751 mmHg 93%
05:00 -6°C° 0 mm 3 mps 751 mmHg 95%
06:00 -6°C° 0 mm 3 mps 752 mmHg 95%
07:00 -6°C° 0 mm 3 mps 752 mmHg 94%
08:00 -6°C° 0 mm 3 mps 752 mmHg 94%
09:00 -5°C° 0 mm 3 mps 753 mmHg 92%
10:00 -5°C° 0 mm 3 mps 753 mmHg 90%
11:00 -4°C° 0 mm 3 mps 753 mmHg 87%
12:00 -4°C° 0 mm 3 mps 753 mmHg 86%
13:00 -2°C° 0 mm 3 mps 754 mmHg 85%
14:00 -2°C° 0 mm 3 mps 754 mmHg 84%
15:00 -3°C° 0 mm 2 mps 754 mmHg 86%
16:00 -4°C° 0 mm 2 mps 754 mmHg 88%
17:00 -5°C° 0 mm 2 mps 754 mmHg 90%
18:00 -5°C° 0 mm 2 mps 754 mmHg 90%
19:00 -5°C° 0 mm 2 mps 755 mmHg 89%
20:00 -5°C° 0 mm 2 mps 755 mmHg 88%
21:00 -5°C° 0 mm 2 mps 755 mmHg 89%
22:00 -5°C° 0 mm 2 mps 755 mmHg 89%
23:00 -5°C° 0 mm 2 mps 756 mmHg 90%

2 December, Wednesday

Time Temperature Precipitation Wind Pressure Humidity
00:00 -5°C° 0 mm 2 mps 756 mmHg 91%
01:00 -6°C° 0 mm 2 mps 756 mmHg 92%
02:00 -6°C° 0 mm 2 mps 756 mmHg 92%
03:00 -6°C° 0 mm 2 mps 756 mmHg 93%
04:00 -6°C° 0 mm 2 mps 756 mmHg 93%
05:00 -6°C° 0 mm 2 mps 755 mmHg 93%
06:00 -6°C° 0 mm 2 mps 756 mmHg 93%
07:00 -4°C° 0 mm 1 mps 756 mmHg 93%
08:00 -4°C° 0 mm 1 mps 756 mmHg 93%
09:00 -5°C° 0 mm 2 mps 756 mmHg 91%
10:00 -5°C° 0 mm 2 mps 756 mmHg 89%
11:00 -4°C° 0 mm 2 mps 756 mmHg 87%
12:00 -4°C° 0 mm 2 mps 755 mmHg 87%
13:00 -4°C° 0 mm 2 mps 755 mmHg 87%
14:00 -1°C° 0 mm 1 mps 755 mmHg 87%
15:00 -2°C° 0 mm 1 mps 754 mmHg 89%
16:00 -5°C° 0 mm 2 mps 754 mmHg 91%
17:00 -6°C° 0 mm 2 mps 754 mmHg 93%
18:00 -6°C° 0 mm 2 mps 754 mmHg 94%
19:00 -6°C° 0 mm 2 mps 754 mmHg 95%
20:00 -6°C° 0 mm 2 mps 754 mmHg 96%
21:00 -3°C° 0 mm 1 mps 754 mmHg 96%
22:00 -3°C° 0 mm 1 mps 754 mmHg 97%
23:00 -3°C° 0 mm 1 mps 754 mmHg 97%

3 December, Thursday

Time Temperature Precipitation Wind Pressure Humidity
00:00 -3°C° 0 mm 1 mps 753 mmHg 97%
01:00 -3°C° 0 mm 1 mps 753 mmHg 97%
02:00 -5°C° 0 mm 2 mps 753 mmHg 97%
03:00 -5°C° 0 mm 2 mps 753 mmHg 97%
04:00 -4°C° 0 mm 2 mps 753 mmHg 97%
05:00 -4°C° 0 mm 2 mps 753 mmHg 96%
06:00 -4°C° 0 mm 2 mps 753 mmHg 96%
07:00 -4°C° 0 mm 2 mps 753 mmHg 96%
08:00 -4°C° 0 mm 2 mps 752 mmHg 96%
09:00 -4°C° 0 mm 2 mps 752 mmHg 95%
10:00 -3°C° 0 mm 2 mps 752 mmHg 93%
11:00 -3°C° 0 mm 2 mps 753 mmHg 92%
12:00 -2°C° 0 mm 2 mps 752 mmHg 91%
13:00 -2°C° 0 mm 2 mps 752 mmHg 91%
14:00 -2°C° 0 mm 2 mps 752 mmHg 91%
15:00 -2°C° 0 mm 3 mps 752 mmHg 93%
16:00 -2°C° 0 mm 3 mps 751 mmHg 94%
17:00 -4°C° 0 mm 3 mps 751 mmHg 95%
18:00 -4°C° 0 mm 3 mps 751 mmHg 95%
19:00 -4°C° 0 mm 3 mps 751 mmHg 95%
20:00 -4°C° 0 mm 3 mps 751 mmHg 94%
21:00 -4°C° 0 mm 3 mps 751 mmHg 94%
22:00 -4°C° 0 mm 3 mps 751 mmHg 94%
23:00 -2°C° 0 mm 3 mps 750 mmHg 93%
Show more